Regional Weather Roundup
Issued by NWS Northern Indiana

Home | Current Version | Previous Version | Text Only | Print | Product List | Glossary Off
Versions: 1 2 3 4 5 6 7 8 9 10 11 12 13 14 15 16 17 18 19 20 21 22 23 24 25 26 27 28 29 30 31 32 33 34 35 36 37 38 39 40 41 42 43 44 45 46 47 48 49 50

000
ASUS43 KIWX 232210
RWRIWX

KIWX WEATHER ROUNDUP
NATIONAL WEATHER SERVICE NORTHERN INDIANA
600 PM EDT SUN APR 23 2017

NOTE: "FAIR" INDICATES FEW OR NO CLOUDS BELOW 12,000 FEET WITH NO
SIGNIFICANT WEATHER AND/OR OBSTRUCTIONS TO VISIBILITY.

* THESE STATIONS ARE NOT UNDER NWS QUALITY CONTROL. THEY ALSO MAY NOT
  REPORT WEATHER SUCH AS PRECIPITATION OR FOG.

INZ001>027-232300-
NORTHERN INDIANA

CITY           SKY/WX    TMP DP  RH WIND       PRES   REMARKS
GARY*          SUNNY     66  12  12 NE7       30.06F
VALPARAISO     SUNNY     69  21  16 NE5       30.05F
MICHIGAN CITY* SUNNY     63  28  27 N9        30.06S
LAPORTE*       SUNNY     67  23  18 NE7       30.05S
KNOX*          SUNNY    N/A N/A N/A N7        30.03S
SOUTH BEND     SUNNY     68  27  21 NE5       30.04F
ELKHART*       SUNNY     68  28  22 NE6       30.03S
GOSHEN         SUNNY     68  31  25 E6        30.03F
MONTICELLO*    SUNNY     69  27  20 NE8       30.02S
LOGANSPORT*    SUNNY     68  32  26 NE6       30.02F
ROCHESTER*     SUNNY     70  28  21 NE6       30.03F
WARSAW*        SUNNY     68  32  26 SE3       30.03F
ANGOLA*        SUNNY     68  61  77 N5        30.03S
FORT WAYNE     MOSUNNY   67  32  27 NE9       30.03F
HUNTINGTON*    SUNNY     67  25  20 N10       30.02S
PERU/GRISSOM   SUNNY     68  33  27 N13       30.00F
MARION*        SUNNY     66  28  24 NE16      30.00F

$$
INZ028>050-232300-
CENTRAL INDIANA

CITY           SKY/WX    TMP DP  RH WIND       PRES   REMARKS
LAFAYETTE      SUNNY     68  34  28 N9        30.00F
KOKOMO*        SUNNY     68  32  26 NE12      30.02F
MUNCIE*        SUNNY     71  27  19 NE15      29.99S
INDIANAPOLIS   MOSUNNY   70  32  24 NE17      29.98R

$$
MIZ043>046-050>051-056>058-064>065-071>073-077>080-232300-
SOUTHWEST LOWER MICHIGAN

CITY           SKY/WX    TMP DP  RH WIND       PRES   REMARKS
BATTLE CREEK   SUNNY     68  24  19 VRB3      30.04S
BENTON HARBOR  SUNNY     62  27  26 W7        30.06F
COLDWATER*     SUNNY     68  29  23 CALM      30.03S
HILLSDALE*     SUNNY     68  28  22 CALM      30.03S
HOLLAND        SUNNY     64  30  27 W6        30.06F
GRAND RAPIDS   MOSUNNY   68  31  25 VRB3      30.04S
KALAMAZOO      SUNNY     70  22  16 N7        30.04S
STURGIS*       SUNNY     68  31  24 N5        30.03S
THREE RIVERS*  FAIR      68  26  21 CALM      30.04S

$$
OHZ001>008-015>018-024>025-232300-
NORTHWEST OHIO

CITY           SKY/WX    TMP DP  RH WIND       PRES   REMARKS
WAUSEON*       FAIR      68  25  19 SE5       30.04F
DEFIANCE       CLOUDY    66  28  24 NE10      30.03F
FINDLAY        CLOUDY    67  29  24 NE16      30.01S
TOLEDO EXPRESS SUNNY     67  21  17 NE7       30.04F
TOLEDO METCALF CLOUDY    65  27  23 N7        30.06S
LIMA           CLOUDY    68  32  26 E13       30.01S

$$
AND FOR LAKE MICHIGAN COASTAL AND OPEN LAKE BUOY OBSERVATIONS

STATION/POSITION TEMP    WIND        PRES    VSBY  WAVE
                 AIR SEA DIR/SP/G                  HT/PER
                 (F)     (DEG/KT/KT) (MB)    (MI)  (FT/S)
CALUMET HARBOR    59      90/  8/ 10 1017.3F
MICHIGAN CITY     55      10/  4/  4   N/A
BURNS HARBOR      58      50/  4/  4 1018.3F
4 MI NW BRIDGMAN  53 53  360/  2/  2 1018.4          0

$$
&&




USA.gov is the U.S. government's official web portal to all federal, state and local government web resources and services.